Time+07,TemperatureF,Dew PointF,Humidity,Sea Level PressureIn,VisibilityMPH,Wind Direction,Wind SpeedMPH,Gust SpeedMPH,PrecipitationIn,Events,Conditions,WindDirDegrees,DateUTC
12:00 AM,77.0,75.2,94,29.86,4.3,Calm,Calm,-,N/A,,Mostly Cloudy,0,2012-10-31 17:00:00
12:30 AM,77.0,75.2,94,29.86,4.3,Calm,Calm,-,N/A,,Mostly Cloudy,0,2012-10-31 17:30:00
1:00 AM,78,76,92,29.79,5,Calm,Calm,,,,Mist,,2012-10-31 18:00:00
1:00 AM,77.0,75.2,94,29.83,4.3,Calm,Calm,-,N/A,,Mostly Cloudy,0,2012-10-31 18:00:00
1:30 AM,77.0,75.2,94,29.83,4.3,Calm,Calm,-,N/A,,Mostly Cloudy,0,2012-10-31 18:30:00
2:00 AM,77.0,75.2,94,29.83,4.3,Calm,Calm,-,N/A,,Mostly Cloudy,0,2012-10-31 19:00:00
3:00 AM,77.0,75.2,94,29.83,4.3,Calm,Calm,-,N/A,,Mostly Cloudy,0,2012-10-31 20:00:00
3:30 AM,77.0,75.2,94,29.80,4.3,Calm,Calm,-,N/A,,Mostly Cloudy,0,2012-10-31 20:30:00
4:00 AM,77.0,75.2,94,29.80,4.3,Calm,Calm,-,N/A,,Mostly Cloudy,0,2012-10-31 21:00:00
4:30 AM,77.0,75.2,94,29.80,4.3,Calm,Calm,-,N/A,,Mostly Cloudy,0,2012-10-31 21:30:00
5:00 AM,78.8,75.2,89,29.80,4.3,Calm,Calm,-,N/A,,Mostly Cloudy,0,2012-10-31 22:00:00
5:30 AM,78.8,75.2,89,29.80,4.3,Calm,Calm,-,N/A,,Mostly Cloudy,0,2012-10-31 22:30:00
6:00 AM,78.8,75.2,89,29.80,4.3,Calm,Calm,-,N/A,,Mostly Cloudy,0,2012-10-31 23:00:00
6:30 AM,77.0,75.2,94,29.83,4.3,Calm,Calm,-,N/A,,Mostly Cloudy,0,2012-10-31 23:30:00
7:00 AM,79,77,93,29.78,6,Calm,Calm,,,,Mist,,2012-11-01 00:00:00
7:00 AM,78.8,77.0,94,29.83,4.3,Calm,Calm,-,N/A,,Mostly Cloudy,0,2012-11-01 00:00:00
7:30 AM,78.8,77.0,94,29.86,4.3,East,3.5,-,N/A,,Mostly Cloudy,80,2012-11-01 00:30:00
8:00 AM,80.6,77.0,89,29.86,5.0,Calm,Calm,-,N/A,,Mostly Cloudy,0,2012-11-01 01:00:00
8:30 AM,82.4,75.2,79,29.89,5.0,East,3.5,-,N/A,,Mostly Cloudy,90,2012-11-01 01:30:00
9:00 AM,84.2,75.2,74,29.86,5.0,Variable,3.5,-,N/A,,Mostly Cloudy,0,2012-11-01 02:00:00
9:30 AM,86.0,75.2,70,29.86,5.0,East,5.8,-,N/A,,Mostly Cloudy,90,2012-11-01 02:30:00
10:00 AM,84.2,75.2,74,29.89,5.0,East,6.9,-,N/A,,Mostly Cloudy,80,2012-11-01 03:00:00
10:30 AM,86.0,73.4,66,29.86,5.0,ENE,6.9,-,N/A,,Mostly Cloudy,70,2012-11-01 03:30:00
11:00 AM,86.0,73.4,66,29.86,5.0,East,10.4,-,N/A,,Mostly Cloudy,80,2012-11-01 04:00:00
11:30 AM,87.8,73.4,62,29.86,5.0,East,10.4,-,N/A,,Mostly Cloudy,80,2012-11-01 04:30:00
12:00 PM,87.8,73.4,62,29.83,5.0,East,12.7,-,N/A,,Mostly Cloudy,90,2012-11-01 05:00:00
12:30 PM,87.8,75.2,66,29.80,5.0,East,11.5,-,N/A,,Mostly Cloudy,90,2012-11-01 05:30:00
1:00 PM,90,75,54,29.81,6,East,8.1,,,,Scattered Clouds,90,2012-11-01 06:00:00
1:00 PM,89.6,73.4,59,29.80,5.6,East,9.2,-,N/A,,Mostly Cloudy,80,2012-11-01 06:00:00
1:30 PM,87.8,73.4,62,29.80,5.6,East,9.2,-,N/A,,Mostly Cloudy,90,2012-11-01 06:30:00
2:00 PM,87.8,73.4,62,29.77,5.6,ENE,8.1,-,N/A,,Mostly Cloudy,70,2012-11-01 07:00:00
2:30 PM,89.6,73.4,59,29.74,5.6,Variable,4.6,-,N/A,,Mostly Cloudy,0,2012-11-01 07:30:00
3:00 PM,89.6,73.4,59,29.74,5.0,Variable,4.6,-,N/A,,Mostly Cloudy,0,2012-11-01 08:00:00
3:30 PM,84.2,75.2,74,29.74,4.3,North,9.2,-,N/A,,Mostly Cloudy,350,2012-11-01 08:30:00
4:00 PM,80.6,71.6,74,29.77,4.3,North,10.4,-,N/A,Rain,Rain,390,2012-11-01 09:00:00
4:30 PM,77.0,73.4,89,29.80,1.9,NNE,12.7,-,N/A,Rain,Rain,30,2012-11-01 09:30:00
5:00 PM,75.2,71.6,89,29.80,3.1,ESE,5.8,-,N/A,Rain,Light Rain,110,2012-11-01 10:00:00
5:30 PM,75.2,71.6,89,29.80,4.3,Calm,Calm,-,N/A,Rain,Light Rain,0,2012-11-01 10:30:00
6:00 PM,75.2,71.6,89,29.80,4.3,Calm,Calm,-,N/A,Rain,Light Rain,0,2012-11-01 11:00:00
6:30 PM,75.2,73.4,94,29.80,4.3,Calm,Calm,-,N/A,Rain,Light Rain,0,2012-11-01 11:30:00
7:00 PM,76,75,95,29.78,4,Calm,Calm,,,Rain,Light Rain,,2012-11-01 12:00:00
7:00 PM,75.2,73.4,94,29.83,4.3,Calm,Calm,-,N/A,Rain,Light Rain,0,2012-11-01 12:00:00
7:30 PM,77.0,73.4,89,29.83,4.3,Variable,2.3,-,N/A,,Mostly Cloudy,0,2012-11-01 12:30:00
8:00 PM,75.2,73.4,94,29.83,4.3,Variable,2.3,-,N/A,,Mostly Cloudy,0,2012-11-01 13:00:00
8:30 PM,75.2,73.4,94,29.86,5.0,Calm,Calm,-,N/A,,Mostly Cloudy,0,2012-11-01 13:30:00
9:30 PM,75.2,73.4,94,29.89,5.0,Calm,Calm,-,N/A,,Mostly Cloudy,0,2012-11-01 14:30:00
10:00 PM,75.2,73.4,94,29.89,5.6,Calm,Calm,-,N/A,,Mostly Cloudy,0,2012-11-01 15:00:00
10:30 PM,75.2,73.4,94,29.89,5.6,Calm,Calm,-,N/A,,Scattered Clouds,0,2012-11-01 15:30:00
11:00 PM,75.2,73.4,94,29.89,5.6,Calm,Calm,-,N/A,,Scattered Clouds,0,2012-11-01 16:00:00
11:30 PM,75.2,73.4,94,29.89,5.6,Calm,Calm,-,N/A,,Scattered Clouds,0,2012-11-01 16:30:00